Time,TemperatureF,DewpointF,PressureIn,WindDirection,WindDirectionDegrees,WindSpeedMPH,WindSpeedGustMPH,Humidity,HourlyPrecipIn,Conditions,Clouds,dailyrainin,SolarRadiationWatts/m^2,SoftwareType,DateUTC
2013-01-17 00:00:00,22.1,11.1,30.30,NW,315,2.0,8.0,62,0.00,,,0.00,0,WeatherCatV1.12B45,2013-01-17 07:00:00,
2013-01-17 00:05:00,22.1,11.1,30.30,NW,315,2.0,8.0,62,0.00,,,0.00,0,WeatherCatV1.12B45,2013-01-17 07:05:00,
2013-01-17 00:10:00,22.1,11.1,30.30,NW,315,2.0,8.0,62,0.00,,,0.00,0,WeatherCatV1.12B45,2013-01-17 07:10:00,
2013-01-17 00:15:00,21.4,11.5,30.31,West,270,1.0,8.0,65,0.00,,,0.00,0,WeatherCatV1.12B45,2013-01-17 07:15:00,
2013-01-17 00:20:00,21.4,11.5,30.31,West,270,1.0,8.0,65,0.00,,,0.00,0,WeatherCatV1.12B45,2013-01-17 07:20:00,
2013-01-17 00:25:00,21.4,11.5,30.31,West,270,1.0,8.0,65,0.00,,,0.00,0,WeatherCatV1.12B45,2013-01-17 07:25:00,
2013-01-17 00:30:00,21.1,10.9,30.31,WNW,292,3.0,11.0,64,0.00,,,0.00,0,WeatherCatV1.12B45,2013-01-17 07:30:00,
2013-01-17 00:35:00,21.1,10.9,30.31,WNW,292,3.0,11.0,64,0.00,,,0.00,0,WeatherCatV1.12B45,2013-01-17 07:35:00,
2013-01-17 00:40:00,21.1,10.9,30.31,WNW,292,3.0,11.0,64,0.00,,,0.00,0,WeatherCatV1.12B45,2013-01-17 07:40:00,
2013-01-17 00:45:00,22.7,12.0,30.31,WNW,292,7.0,13.0,63,0.00,,,0.00,0,WeatherCatV1.12B45,2013-01-17 07:45:00,
2013-01-17 00:50:00,22.7,12.0,30.31,WNW,292,7.0,13.0,63,0.00,,,0.00,0,WeatherCatV1.12B45,2013-01-17 07:50:00,
2013-01-17 00:55:00,22.7,12.0,30.31,WNW,292,7.0,13.0,63,0.00,,,0.00,0,WeatherCatV1.12B45,2013-01-17 07:55:00,
2013-01-17 01:00:00,22.9,11.9,30.31,NW,315,5.0,13.0,62,0.00,,,0.00,0,WeatherCatV1.12B45,2013-01-17 08:00:00,
2013-01-17 01:05:00,22.9,11.9,30.31,NW,315,5.0,13.0,62,0.00,,,0.00,0,WeatherCatV1.12B45,2013-01-17 08:05:00,
2013-01-17 01:10:00,22.9,11.9,30.31,NW,315,5.0,13.0,62,0.00,,,0.00,0,WeatherCatV1.12B45,2013-01-17 08:10:00,
2013-01-17 01:15:00,21.8,11.5,30.31,NW,315,4.0,12.0,64,0.00,,,0.00,0,WeatherCatV1.12B45,2013-01-17 08:15:00,
2013-01-17 01:20:00,21.8,11.5,30.31,NW,315,4.0,12.0,64,0.00,,,0.00,0,WeatherCatV1.12B45,2013-01-17 08:20:00,
2013-01-17 01:25:00,21.8,11.5,30.31,NW,315,4.0,12.0,64,0.00,,,0.00,0,WeatherCatV1.12B45,2013-01-17 08:25:00,
2013-01-17 01:30:00,21.3,11.0,30.31,NW,315,4.0,13.0,64,0.00,,,0.00,0,WeatherCatV1.12B45,2013-01-17 08:30:00,
2013-01-17 01:35:00,21.3,11.0,30.31,NW,315,4.0,13.0,64,0.00,,,0.00,0,WeatherCatV1.12B45,2013-01-17 08:35:00,
2013-01-17 01:40:00,19.7,9.5,30.32,NW,315,3.0,7.0,64,0.00,,,0.00,0,WeatherCatV1.12B45,2013-01-17 08:40:00,
2013-01-17 01:45:00,19.7,9.5,30.32,NW,315,3.0,7.0,64,0.00,,,0.00,0,WeatherCatV1.12B45,2013-01-17 08:45:00,
2013-01-17 01:50:00,19.7,9.5,30.32,NW,315,3.0,7.0,64,0.00,,,0.00,0,WeatherCatV1.12B45,2013-01-17 08:50:00,
2013-01-17 01:55:00,20.0,9.8,30.32,NW,315,5.0,13.0,64,0.00,,,0.00,0,WeatherCatV1.12B45,2013-01-17 08:55:00,
2013-01-17 02:00:00,20.0,9.8,30.32,NW,315,5.0,13.0,64,0.00,,,0.00,0,WeatherCatV1.12B45,2013-01-17 09:00:00,
2013-01-17 02:05:00,20.0,9.8,30.32,NW,315,5.0,13.0,64,0.00,,,0.00,0,WeatherCatV1.12B45,2013-01-17 09:05:00,
2013-01-17 02:10:00,18.6,9.5,30.32,NW,315,1.0,5.0,67,0.00,,,0.00,0,WeatherCatV1.12B45,2013-01-17 09:10:00,
2013-01-17 02:15:00,18.6,9.5,30.32,NW,315,1.0,5.0,67,0.00,,,0.00,0,WeatherCatV1.12B45,2013-01-17 09:15:00,
2013-01-17 02:20:00,18.6,9.5,30.32,NW,315,1.0,5.0,67,0.00,,,0.00,0,WeatherCatV1.12B45,2013-01-17 09:20:00,
2013-01-17 02:25:00,18.6,9.5,30.32,NW,315,1.0,5.0,67,0.00,,,0.00,0,WeatherCatV1.12B45,2013-01-17 09:25:00,
2013-01-17 02:30:00,17.8,8.7,30.32,WNW,292,2.0,10.0,67,0.00,,,0.00,0,WeatherCatV1.12B45,2013-01-17 09:30:00,
2013-01-17 02:35:00,17.8,8.7,30.32,WNW,292,2.0,10.0,67,0.00,,,0.00,0,WeatherCatV1.12B45,2013-01-17 09:35:00,
2013-01-17 02:40:00,17.8,8.7,30.32,WNW,292,2.0,10.0,67,0.00,,,0.00,0,WeatherCatV1.12B45,2013-01-17 09:40:00,
2013-01-17 02:45:00,15.2,7.2,30.32,West,270,1.0,3.0,70,0.00,,,0.00,0,WeatherCatV1.12B45,2013-01-17 09:45:00,
2013-01-17 02:50:00,15.2,7.2,30.32,West,270,1.0,3.0,70,0.00,,,0.00,0,WeatherCatV1.12B45,2013-01-17 09:50:00,
2013-01-17 02:55:00,15.2,7.2,30.32,West,270,1.0,3.0,70,0.00,,,0.00,0,WeatherCatV1.12B45,2013-01-17 09:55:00,
2013-01-17 03:00:00,15.6,9.1,30.32,West,270,1.0,6.0,75,0.00,,,0.00,0,WeatherCatV1.12B45,2013-01-17 10:00:00,
2013-01-17 03:05:00,15.6,9.1,30.32,West,270,1.0,6.0,75,0.00,,,0.00,0,WeatherCatV1.12B45,2013-01-17 10:05:00,
2013-01-17 03:10:00,15.6,9.1,30.32,West,270,1.0,6.0,75,0.00,,,0.00,0,WeatherCatV1.12B45,2013-01-17 10:10:00,
2013-01-17 03:15:00,16.5,8.8,30.32,North,0,2.0,6.0,71,0.00,,,0.00,0,WeatherCatV1.12B45,2013-01-17 10:15:00,
2013-01-17 03:20:00,16.5,8.8,30.32,North,0,2.0,6.0,71,0.00,,,0.00,0,WeatherCatV1.12B45,2013-01-17 10:20:00,
2013-01-17 03:25:00,16.5,8.8,30.32,North,0,2.0,6.0,71,0.00,,,0.00,0,WeatherCatV1.12B45,2013-01-17 10:25:00,
2013-01-17 03:30:00,17.7,9.6,30.32,NW,315,3.0,10.0,70,0.00,,,0.00,0,WeatherCatV1.12B45,2013-01-17 10:30:00,
2013-01-17 03:35:00,17.7,9.6,30.32,NW,315,3.0,10.0,70,0.00,,,0.00,0,WeatherCatV1.12B45,2013-01-17 10:35:00,
2013-01-17 03:40:00,17.7,9.6,30.32,NW,315,3.0,10.0,70,0.00,,,0.00,0,WeatherCatV1.12B45,2013-01-17 10:40:00,
2013-01-17 03:45:00,17.3,9.8,30.32,NW,315,2.0,8.0,72,0.00,,,0.00,0,WeatherCatV1.12B45,2013-01-17 10:45:00,
2013-01-17 03:50:00,17.3,9.8,30.32,NW,315,2.0,8.0,72,0.00,,,0.00,0,WeatherCatV1.12B45,2013-01-17 10:50:00,
2013-01-17 03:55:00,17.3,9.8,30.32,NW,315,2.0,8.0,72,0.00,,,0.00,0,WeatherCatV1.12B45,2013-01-17 10:55:00,
2013-01-17 04:00:00,16.9,8.2,30.32,WNW,292,2.0,8.0,68,0.00,,,0.00,0,WeatherCatV1.12B45,2013-01-17 11:00:00,
2013-01-17 04:05:00,16.9,8.2,30.32,WNW,292,2.0,8.0,68,0.00,,,0.00,0,WeatherCatV1.12B45,2013-01-17 11:05:00,
2013-01-17 04:10:00,16.9,8.2,30.32,WNW,292,2.0,8.0,68,0.00,,,0.00,0,WeatherCatV1.12B45,2013-01-17 11:10:00,
2013-01-17 04:15:00,14.8,8.0,30.32,North,0,2.0,7.0,74,0.00,,,0.00,0,WeatherCatV1.12B45,2013-01-17 11:15:00,
2013-01-17 04:20:00,14.8,8.0,30.32,North,0,2.0,7.0,74,0.00,,,0.00,0,WeatherCatV1.12B45,2013-01-17 11:20:00,
2013-01-17 04:32:00,14.8,8.0,30.32,North,0,2.0,7.0,74,0.00,,,0.00,0,WeatherCatV1.12B45,2013-01-17 11:32:00,
2013-01-17 04:37:00,12.9,6.2,30.32,NNW,328,2.0,6.0,74,0.00,,,0.00,0,WeatherCatV1.12B45,2013-01-17 11:37:00,
2013-01-17 04:42:00,13.5,7.9,30.32,NW,308,3.0,7.0,78,0.00,,,0.00,0,WeatherCatV1.12B45,2013-01-17 11:42:00,
2013-01-17 04:47:00,14.1,7.4,30.32,NW,308,2.0,3.0,74,0.00,,,0.00,0,WeatherCatV1.12B45,2013-01-17 11:47:00,
2013-01-17 04:52:00,14.1,6.5,30.32,NW,308,1.0,2.0,71,0.00,,,0.00,0,WeatherCatV1.12B45,2013-01-17 11:52:00,
2013-01-17 04:57:00,13.5,5.9,30.32,NW,318,3.0,6.0,71,0.00,,,0.00,0,WeatherCatV1.12B45,2013-01-17 11:57:00,
2013-01-17 05:00:00,13.1,6.4,30.32,NW,318,5.0,5.0,74,0.00,,,0.00,0,WeatherCatV1.12B45,2013-01-17 12:00:00,
2013-01-17 05:05:00,12.8,6.4,30.32,NW,318,3.0,3.0,75,0.00,,,0.00,0,WeatherCatV1.12B45,2013-01-17 12:05:00,
2013-01-17 05:10:00,13.5,7.7,30.32,NW,318,0.0,0.0,77,0.00,,,0.00,0,WeatherCatV1.12B45,2013-01-17 12:10:00,
2013-01-17 05:15:00,14.3,8.7,30.32,NW,318,3.0,6.0,78,0.00,,,0.00,0,WeatherCatV1.12B45,2013-01-17 12:15:00,
2013-01-17 05:20:00,14.8,8.3,30.32,NW,323,3.0,5.0,75,0.00,,,0.00,0,WeatherCatV1.12B45,2013-01-17 12:20:00,
2013-01-17 05:25:00,14.8,8.0,30.32,NW,325,0.0,0.0,74,0.00,,,0.00,0,WeatherCatV1.12B45,2013-01-17 12:25:00,
2013-01-17 05:30:00,14.9,8.1,30.32,NW,325,0.0,2.0,74,0.00,,,0.00,0,WeatherCatV1.12B45,2013-01-17 12:30:00,
2013-01-17 05:35:00,14.9,7.8,30.32,NW,325,0.0,0.0,73,0.00,,,0.00,0,WeatherCatV1.12B45,2013-01-17 12:35:00,
2013-01-17 05:40:00,15.1,8.0,30.32,NNW,340,5.0,6.0,73,0.00,,,0.00,0,WeatherCatV1.12B45,2013-01-17 12:40:00,
2013-01-17 05:45:00,14.8,7.1,30.32,NNW,340,0.0,0.0,71,0.00,,,0.00,0,WeatherCatV1.12B45,2013-01-17 12:45:00,
2013-01-17 05:51:00,14.1,6.8,30.32,NNW,340,2.0,3.0,72,0.00,,,0.00,0,WeatherCatV1.12B45,2013-01-17 12:51:00,
2013-01-17 05:56:00,14.3,7.9,30.32,NNW,340,3.0,3.0,75,0.00,,,0.00,0,WeatherCatV1.12B45,2013-01-17 12:56:00,
2013-01-17 06:01:00,14.4,7.4,30.32,NNW,340,0.0,0.0,73,0.00,,,0.00,0,WeatherCatV1.12B45,2013-01-17 13:01:00,
2013-01-17 06:06:00,14.1,7.1,30.32,NNW,340,2.0,3.0,73,0.00,,,0.00,0,WeatherCatV1.12B45,2013-01-17 13:06:00,
2013-01-17 06:10:00,14.0,7.3,30.32,NNW,340,2.0,3.0,74,0.00,,,0.00,0,WeatherCatV1.12B45,2013-01-17 13:10:00,
2013-01-17 06:16:00,13.8,6.8,30.32,NNW,340,1.0,1.0,73,0.00,,,0.00,0,WeatherCatV1.12B45,2013-01-17 13:16:00,
2013-01-17 06:21:00,13.5,6.8,30.32,NNW,340,0.0,0.0,74,0.00,,,0.00,0,WeatherCatV1.12B45,2013-01-17 13:21:00,
2013-01-17 06:25:00,13.3,6.6,30.32,NNW,340,0.0,0.0,74,0.00,,,0.00,0,WeatherCatV1.12B45,2013-01-17 13:25:00,
2013-01-17 06:30:00,12.9,6.2,30.32,NNW,340,2.0,5.0,74,0.00,,,0.00,0,WeatherCatV1.12B45,2013-01-17 13:30:00,
2013-01-17 06:35:00,12.3,5.6,30.32,NNW,340,0.0,2.0,74,0.00,,,0.00,0,WeatherCatV1.12B45,2013-01-17 13:35:00,
2013-01-17 06:41:00,12.1,5.7,30.32,NNW,340,0.0,0.0,75,0.00,,,0.00,0,WeatherCatV1.12B45,2013-01-17 13:41:00,
2013-01-17 06:46:00,11.7,5.3,30.33,NNW,340,2.0,3.0,75,0.00,,,0.00,0,WeatherCatV1.12B45,2013-01-17 13:46:00,
2013-01-17 06:51:00,11.1,4.8,30.33,NNW,340,2.0,3.0,75,0.00,,,0.00,0,WeatherCatV1.12B45,2013-01-17 13:51:00,
2013-01-17 06:56:00,11.1,5.0,30.33,NNW,340,2.0,3.0,76,0.00,,,0.00,0,WeatherCatV1.12B45,2013-01-17 13:56:00,
2013-01-17 07:01:00,10.7,4.7,30.34,NNW,340,0.0,0.0,76,0.00,,,0.00,0,WeatherCatV1.12B45,2013-01-17 14:01:00,
2013-01-17 07:06:00,10.7,4.7,30.34,NNW,340,2.0,3.0,76,0.00,,,0.00,0,WeatherCatV1.12B45,2013-01-17 14:06:00,
2013-01-17 07:11:00,10.7,4.7,30.34,NNW,340,3.0,3.0,76,0.00,,,0.00,0,WeatherCatV1.12B45,2013-01-17 14:11:00,
2013-01-17 07:16:00,10.4,4.4,30.34,NNW,340,0.0,2.0,76,0.00,,,0.00,5,WeatherCatV1.12B45,2013-01-17 14:16:00,
2013-01-17 07:21:00,10.7,5.2,30.34,NNW,340,1.0,3.0,78,0.00,,,0.00,5,WeatherCatV1.12B45,2013-01-17 14:21:00,
2013-01-17 07:26:00,10.9,4.8,30.34,NNW,340,0.0,0.0,76,0.00,,,0.00,9,WeatherCatV1.12B45,2013-01-17 14:26:00,
2013-01-17 07:31:00,10.7,4.9,30.34,NNW,340,2.0,3.0,77,0.00,,,0.00,11,WeatherCatV1.12B45,2013-01-17 14:31:00,
2013-01-17 07:36:00,10.9,5.1,30.34,NNW,340,1.0,3.0,77,0.00,,,0.00,14,WeatherCatV1.12B45,2013-01-17 14:36:00,
2013-01-17 07:41:00,11.4,5.6,30.34,NNW,340,2.0,6.0,77,0.00,,,0.00,35,WeatherCatV1.12B45,2013-01-17 14:41:00,
2013-01-17 07:46:00,12.6,6.5,30.34,NNW,340,3.0,5.0,76,0.00,,,0.00,55,WeatherCatV1.12B45,2013-01-17 14:46:00,
2013-01-17 07:51:00,14.0,7.6,30.34,NW,320,6.0,8.0,75,0.00,,,0.00,86,WeatherCatV1.12B45,2013-01-17 14:51:00,
2013-01-17 07:56:00,16.2,9.1,30.34,NW,319,2.0,3.0,73,0.00,,,0.00,109,WeatherCatV1.12B45,2013-01-17 14:56:00,
2013-01-17 08:01:00,17.3,8.3,30.34,NW,319,3.0,3.0,67,0.00,,,0.00,128,WeatherCatV1.12B45,2013-01-17 15:01:00,
2013-01-17 08:06:00,18.4,8.6,30.34,NW,315,1.0,1.0,65,0.00,,,0.00,150,WeatherCatV1.12B45,2013-01-17 15:06:00,
2013-01-17 08:11:00,19.9,9.4,30.34,NNW,335,7.0,9.0,63,0.00,,,0.00,169,WeatherCatV1.12B45,2013-01-17 15:11:00,
2013-01-17 08:16:00,21.3,9.6,30.35,NNW,329,3.0,6.0,60,0.00,,,0.00,185,WeatherCatV1.12B45,2013-01-17 15:16:00,
2013-01-17 08:21:00,22.7,10.6,30.35,NW,315,2.0,9.0,59,0.00,,,0.00,195,WeatherCatV1.12B45,2013-01-17 15:21:00,
2013-01-17 08:26:00,23.9,10.5,30.35,West,265,2.0,3.0,56,0.00,,,0.00,204,WeatherCatV1.12B45,2013-01-17 15:26:00,
2013-01-17 08:31:00,24.8,10.5,30.35,WSW,246,0.0,2.0,54,0.00,,,0.00,199,WeatherCatV1.12B45,2013-01-17 15:31:00,
2013-01-17 08:36:00,25.4,11.1,30.35,WSW,247,0.0,0.0,54,0.00,,,0.00,179,WeatherCatV1.12B45,2013-01-17 15:36:00,
2013-01-17 08:41:00,24.7,11.3,30.35,WSW,243,2.0,6.0,56,0.00,,,0.00,158,WeatherCatV1.12B45,2013-01-17 15:41:00,
2013-01-17 08:46:00,23.3,11.1,30.36,SSW,208,7.0,8.0,59,0.00,,,0.00,158,WeatherCatV1.12B45,2013-01-17 15:46:00,
2013-01-17 08:51:00,22.5,10.4,30.36,SSW,209,3.0,3.0,59,0.00,,,0.00,155,WeatherCatV1.12B45,2013-01-17 15:51:00,
2013-01-17 08:56:00,22.4,10.3,30.36,South,186,2.0,4.0,59,0.00,,,0.00,137,WeatherCatV1.12B45,2013-01-17 15:56:00,
2013-01-17 09:01:00,22.4,10.3,30.37,South,186,0.0,0.0,59,0.00,,,0.00,241,WeatherCatV1.12B45,2013-01-17 16:01:00,
2013-01-17 09:06:00,23.0,10.5,30.37,South,186,0.0,0.0,58,0.00,,,0.00,276,WeatherCatV1.12B45,2013-01-17 16:06:00,
2013-01-17 09:11:00,23.6,10.6,30.37,South,186,0.0,0.0,57,0.00,,,0.00,297,WeatherCatV1.12B45,2013-01-17 16:11:00,
2013-01-17 09:16:00,24.1,11.1,30.37,South,186,0.0,0.0,57,0.00,,,0.00,274,WeatherCatV1.12B45,2013-01-17 16:16:00,
2013-01-17 09:21:00,25.0,11.5,30.37,South,186,0.0,0.0,56,0.00,,,0.00,294,WeatherCatV1.12B45,2013-01-17 16:21:00,
2013-01-17 09:26:00,25.7,11.8,30.37,South,186,0.0,0.0,55,0.00,,,0.00,338,WeatherCatV1.12B45,2013-01-17 16:26:00,
2013-01-17 09:31:00,26.9,12.1,30.37,South,186,0.0,0.0,53,0.00,,,0.00,377,WeatherCatV1.12B45,2013-01-17 16:31:00,
2013-01-17 09:36:00,27.9,12.1,30.37,South,186,0.0,0.0,51,0.00,,,0.00,355,WeatherCatV1.12B45,2013-01-17 16:36:00,
2013-01-17 09:41:00,28.5,12.3,30.37,South,186,0.0,0.0,50,0.00,,,0.00,384,WeatherCatV1.12B45,2013-01-17 16:41:00,
2013-01-17 09:46:00,29.1,12.4,30.37,South,186,0.0,0.0,49,0.00,,,0.00,385,WeatherCatV1.12B45,2013-01-17 16:46:00,
2013-01-17 09:51:00,30.3,12.5,30.37,South,186,0.0,0.0,47,0.00,,,0.00,389,WeatherCatV1.12B45,2013-01-17 16:51:00,
2013-01-17 09:56:00,31.8,12.4,30.37,South,186,0.0,0.0,44,0.00,,,0.00,426,WeatherCatV1.12B45,2013-01-17 16:56:00,
2013-01-17 10:01:00,32.7,13.2,30.37,South,186,0.0,0.0,44,0.00,,,0.00,433,WeatherCatV1.12B45,2013-01-17 17:01:00,
2013-01-17 10:06:00,33.4,13.3,30.37,South,186,0.0,0.0,43,0.00,,,0.00,433,WeatherCatV1.12B45,2013-01-17 17:06:00,
2013-01-17 10:11:00,34.1,13.4,30.37,South,186,0.0,0.0,42,0.00,,,0.00,447,WeatherCatV1.12B45,2013-01-17 17:11:00,
2013-01-17 10:16:00,34.4,13.2,30.37,South,186,0.0,0.0,41,0.00,,,0.00,454,WeatherCatV1.12B45,2013-01-17 17:16:00,
2013-01-17 10:21:00,35.2,13.3,30.37,South,186,0.0,0.0,40,0.00,,,0.00,461,WeatherCatV1.12B45,2013-01-17 17:21:00,
2013-01-17 10:26:00,36.2,14.2,30.37,South,186,0.0,0.0,40,0.00,,,0.00,466,WeatherCatV1.12B45,2013-01-17 17:26:00,
2013-01-17 10:31:00,37.6,13.7,30.36,South,186,0.0,0.0,37,0.00,,,0.00,473,WeatherCatV1.12B45,2013-01-17 17:31:00,
2013-01-17 10:36:00,37.9,14.0,30.36,South,186,0.0,0.0,37,0.00,,,0.00,482,WeatherCatV1.12B45,2013-01-17 17:36:00,
2013-01-17 10:41:00,38.5,13.9,30.36,South,186,0.0,0.0,36,0.00,,,0.00,489,WeatherCatV1.12B45,2013-01-17 17:41:00,
2013-01-17 10:46:00,38.2,14.2,30.35,South,186,0.0,0.0,37,0.00,,,0.00,496,WeatherCatV1.12B45,2013-01-17 17:46:00,
2013-01-17 10:51:00,37.5,14.2,30.35,South,186,0.0,0.0,38,0.00,,,0.00,501,WeatherCatV1.12B45,2013-01-17 17:51:00,
2013-01-17 10:56:00,37.5,14.2,30.35,South,186,0.0,0.0,38,0.00,,,0.00,505,WeatherCatV1.12B45,2013-01-17 17:56:00,
2013-01-17 11:01:00,37.5,14.2,30.35,South,182,2.0,3.0,38,0.00,,,0.00,514,WeatherCatV1.12B45,2013-01-17 18:01:00,
2013-01-17 11:06:00,37.8,14.5,30.35,South,182,0.0,1.0,38,0.00,,,0.00,519,WeatherCatV1.12B45,2013-01-17 18:06:00,
2013-01-17 11:11:00,37.5,13.6,30.35,South,182,0.0,5.0,37,0.00,,,0.00,524,WeatherCatV1.12B45,2013-01-17 18:11:00,
2013-01-17 11:16:00,37.2,14.0,30.34,South,182,0.0,3.0,38,0.00,,,0.00,528,WeatherCatV1.12B45,2013-01-17 18:16:00,
2013-01-17 11:21:00,37.0,14.4,30.34,South,182,0.0,0.0,39,0.00,,,0.00,531,WeatherCatV1.12B45,2013-01-17 18:21:00,
2013-01-17 11:26:00,37.9,14.6,30.34,South,182,0.0,1.0,38,0.00,,,0.00,537,WeatherCatV1.12B45,2013-01-17 18:26:00,
2013-01-17 11:31:00,38.2,14.9,30.33,South,184,0.0,0.0,38,0.00,,,0.00,540,WeatherCatV1.12B45,2013-01-17 18:31:00,
2013-01-17 11:36:00,38.6,15.8,30.33,South,184,0.0,0.0,39,0.00,,,0.00,545,WeatherCatV1.12B45,2013-01-17 18:36:00,
2013-01-17 11:41:00,38.9,14.9,30.33,South,182,0.0,1.0,37,0.00,,,0.00,547,WeatherCatV1.12B45,2013-01-17 18:41:00,
2013-01-17 11:46:00,39.2,15.8,30.32,South,182,0.0,3.0,38,0.00,,,0.00,551,WeatherCatV1.12B45,2013-01-17 18:46:00,
2013-01-17 11:51:00,39.2,14.5,30.32,South,182,0.0,0.0,36,0.00,,,0.00,549,WeatherCatV1.12B45,2013-01-17 18:51:00,
2013-01-17 11:56:00,40.3,15.5,30.32,South,182,0.0,0.0,36,0.00,,,0.00,552,WeatherCatV1.12B45,2013-01-17 18:56:00,
2013-01-17 12:01:00,40.9,14.7,30.31,South,182,0.0,0.0,34,0.00,,,0.00,556,WeatherCatV1.12B45,2013-01-17 19:01:00,
2013-01-17 12:06:00,41.5,14.6,30.31,South,182,0.0,0.0,33,0.00,,,0.00,558,WeatherCatV1.12B45,2013-01-17 19:06:00,
2013-01-17 12:11:00,41.1,14.9,30.31,South,181,0.0,5.0,34,0.00,,,0.00,558,WeatherCatV1.12B45,2013-01-17 19:11:00,
2013-01-17 12:16:00,41.3,15.1,30.31,SSE,160,0.0,0.0,34,0.00,,,0.00,558,WeatherCatV1.12B45,2013-01-17 19:16:00,
2013-01-17 12:21:00,41.1,14.2,30.31,East,100,0.0,1.0,33,0.00,,,0.00,556,WeatherCatV1.12B45,2013-01-17 19:21:00,
2013-01-17 12:26:00,40.6,14.5,30.31,ESE,109,6.0,6.0,34,0.00,,,0.00,556,WeatherCatV1.12B45,2013-01-17 19:26:00,
2013-01-17 12:31:00,40.2,15.4,30.30,ESE,102,2.0,7.0,36,0.00,,,0.00,554,WeatherCatV1.12B45,2013-01-17 19:31:00,
2013-01-17 12:36:00,40.2,14.1,30.30,ESE,107,0.0,3.0,34,0.00,,,0.00,552,WeatherCatV1.12B45,2013-01-17 19:36:00,
2013-01-17 12:41:00,41.1,15.6,30.30,ESE,102,2.0,7.0,35,0.00,,,0.00,547,WeatherCatV1.12B45,2013-01-17 19:41:00,
2013-01-17 12:46:00,40.9,15.4,30.29,East,100,3.0,8.0,35,0.00,,,0.00,549,WeatherCatV1.12B45,2013-01-17 19:46:00,
2013-01-17 12:51:00,40.9,15.4,30.29,ESE,123,9.0,9.0,35,0.00,,,0.00,547,WeatherCatV1.12B45,2013-01-17 19:51:00,
2013-01-17 12:56:00,40.9,15.4,30.29,SSE,147,4.0,8.0,35,0.00,,,0.00,526,WeatherCatV1.12B45,2013-01-17 19:56:00,
2013-01-17 13:01:00,40.5,14.4,30.28,SE,138,7.0,10.0,34,0.00,,,0.00,528,WeatherCatV1.12B45,2013-01-17 20:01:00,
2013-01-17 13:06:00,39.9,15.8,30.28,SSE,150,6.0,9.0,37,0.00,,,0.00,533,WeatherCatV1.12B45,2013-01-17 20:06:00,
2013-01-17 13:11:00,39.8,15.0,30.28,SSE,147,7.0,10.0,36,0.00,,,0.00,524,WeatherCatV1.12B45,2013-01-17 20:11:00,
2013-01-17 13:16:00,39.9,15.8,30.28,SSE,154,5.0,10.0,37,0.00,,,0.00,517,WeatherCatV1.12B45,2013-01-17 20:16:00,
2013-01-17 13:21:00,39.3,14.6,30.28,South,172,7.0,14.0,36,0.00,,,0.00,510,WeatherCatV1.12B45,2013-01-17 20:21:00,
2013-01-17 13:26:00,39.6,14.9,30.28,SSE,161,5.0,12.0,36,0.00,,,0.00,503,WeatherCatV1.12B45,2013-01-17 20:26:00,
2013-01-17 13:31:00,39.5,14.8,30.28,SE,133,12.0,16.0,36,0.00,,,0.00,498,WeatherCatV1.12B45,2013-01-17 20:31:00,
2013-01-17 13:36:00,39.2,15.1,30.28,SSE,160,8.0,12.0,37,0.00,,,0.00,378,WeatherCatV1.12B45,2013-01-17 20:36:00,
2013-01-17 13:41:00,38.9,14.9,30.28,SSE,158,3.0,14.0,37,0.00,,,0.00,479,WeatherCatV1.12B45,2013-01-17 20:41:00,
2013-01-17 13:46:00,39.2,14.5,30.27,SSE,164,8.0,12.0,36,0.00,,,0.00,477,WeatherCatV1.12B45,2013-01-17 20:46:00,
2013-01-17 13:51:00,39.6,15.5,30.27,SE,140,5.0,12.0,37,0.00,,,0.00,470,WeatherCatV1.12B45,2013-01-17 20:51:00,
2013-01-17 13:56:00,39.5,15.4,30.27,SSE,148,5.0,13.0,37,0.00,,,0.00,461,WeatherCatV1.12B45,2013-01-17 20:56:00,
2013-01-17 14:01:00,39.3,15.2,30.27,SE,141,12.0,14.0,37,0.00,,,0.00,445,WeatherCatV1.12B45,2013-01-17 21:01:00,
2013-01-17 14:06:00,38.9,15.5,30.27,South,175,4.0,15.0,38,0.00,,,0.00,442,WeatherCatV1.12B45,2013-01-17 21:06:00,
2013-01-17 14:11:00,39.5,16.0,30.27,South,172,2.0,11.0,38,0.00,,,0.00,398,WeatherCatV1.12B45,2013-01-17 21:11:00,
2013-01-17 14:16:00,39.2,15.8,30.26,SE,144,1.0,8.0,38,0.00,,,0.00,417,WeatherCatV1.12B45,2013-01-17 21:16:00,
2013-01-17 14:21:00,38.9,15.5,30.26,SE,141,9.0,12.0,38,0.00,,,0.00,405,WeatherCatV1.12B45,2013-01-17 21:21:00,
2013-01-17 14:26:00,39.1,15.7,30.26,SE,141,7.0,12.0,38,0.00,,,0.00,403,WeatherCatV1.12B45,2013-01-17 21:26:00,
2013-01-17 14:31:00,39.2,15.1,30.26,SSW,199,11.0,12.0,37,0.00,,,0.00,394,WeatherCatV1.12B45,2013-01-17 21:31:00,
2013-01-17 14:36:00,39.3,15.8,30.26,SSW,206,5.0,12.0,38,0.00,,,0.00,368,WeatherCatV1.12B45,2013-01-17 21:36:00,
2013-01-17 14:41:00,39.6,15.5,30.26,South,174,2.0,10.0,37,0.00,,,0.00,364,WeatherCatV1.12B45,2013-01-17 21:41:00,
2013-01-17 14:46:00,39.5,14.8,30.26,SSW,198,12.0,14.0,36,0.00,,,0.00,362,WeatherCatV1.12B45,2013-01-17 21:46:00,
2013-01-17 14:51:00,39.5,16.0,30.26,South,186,0.0,5.0,38,0.00,,,0.00,350,WeatherCatV1.12B45,2013-01-17 21:51:00,
2013-01-17 14:56:00,39.5,15.4,30.26,SSE,158,8.0,8.0,37,0.00,,,0.00,326,WeatherCatV1.12B45,2013-01-17 21:56:00,
2013-01-17 15:01:00,39.3,15.2,30.26,SSE,147,3.0,9.0,37,0.00,,,0.00,324,WeatherCatV1.12B45,2013-01-17 22:01:00,
2013-01-17 15:06:00,39.2,15.8,30.26,SSE,148,7.0,16.0,38,0.00,,,0.00,315,WeatherCatV1.12B45,2013-01-17 22:06:00,
2013-01-17 15:11:00,38.9,15.5,30.26,SSE,152,14.0,14.0,38,0.00,,,0.00,301,WeatherCatV1.12B45,2013-01-17 22:11:00,
2013-01-17 15:16:00,38.6,14.6,30.26,SSE,155,10.0,11.0,37,0.00,,,0.00,289,WeatherCatV1.12B45,2013-01-17 22:16:00,
2013-01-17 15:21:00,38.3,14.9,30.26,SE,138,10.0,11.0,38,0.00,,,0.00,276,WeatherCatV1.12B45,2013-01-17 22:21:00,
2013-01-17 15:26:00,38.3,14.9,30.26,SSE,154,7.0,11.0,38,0.00,,,0.00,262,WeatherCatV1.12B45,2013-01-17 22:26:00,
2013-01-17 15:31:00,38.2,15.4,30.26,SE,145,6.0,12.0,39,0.00,,,0.00,246,WeatherCatV1.12B45,2013-01-17 22:31:00,
2013-01-17 15:36:00,37.9,15.2,30.26,SE,130,13.0,13.0,39,0.00,,,0.00,232,WeatherCatV1.12B45,2013-01-17 22:36:00,
2013-01-17 15:41:00,37.0,14.9,30.26,SE,137,7.0,11.0,40,0.00,,,0.00,139,WeatherCatV1.12B45,2013-01-17 22:41:00,
2013-01-17 15:46:00,37.3,14.6,30.26,SE,138,3.0,8.0,39,0.00,,,0.00,206,WeatherCatV1.12B45,2013-01-17 22:46:00,
2013-01-17 15:51:00,37.8,14.5,30.26,South,174,0.0,1.0,38,0.00,,,0.00,190,WeatherCatV1.12B45,2013-01-17 22:51:00,
2013-01-17 15:56:00,37.6,14.9,30.26,ESE,119,5.0,5.0,39,0.00,,,0.00,176,WeatherCatV1.12B45,2013-01-17 22:56:00,
2013-01-17 16:01:00,37.2,14.6,30.26,ESE,120,5.0,5.0,39,0.00,,,0.00,21,WeatherCatV1.12B45,2013-01-17 23:01:00,
2013-01-17 16:06:00,36.6,14.6,30.26,ESE,119,0.0,3.0,40,0.00,,,0.00,21,WeatherCatV1.12B45,2013-01-17 23:06:00,
2013-01-17 16:11:00,36.0,14.0,30.26,ESE,119,0.0,2.0,40,0.00,,,0.00,19,WeatherCatV1.12B45,2013-01-17 23:11:00,
2013-01-17 16:16:00,35.5,14.7,30.27,ESE,119,1.0,3.0,42,0.00,,,0.00,19,WeatherCatV1.12B45,2013-01-17 23:16:00,
2013-01-17 16:21:00,34.4,14.2,30.27,ESE,119,0.0,3.0,43,0.00,,,0.00,18,WeatherCatV1.12B45,2013-01-17 23:21:00,
2013-01-17 16:26:00,33.8,14.7,30.27,ESE,119,2.0,3.0,45,0.00,,,0.00,18,WeatherCatV1.12B45,2013-01-17 23:26:00,
2013-01-17 16:31:00,33.2,15.2,30.27,North,11,3.0,6.0,47,0.00,,,0.00,16,WeatherCatV1.12B45,2013-01-17 23:31:00,
2013-01-17 16:36:00,32.4,14.9,30.27,North,11,1.0,3.0,48,0.00,,,0.00,16,WeatherCatV1.12B45,2013-01-17 23:36:00,
2013-01-17 16:41:00,31.8,15.3,30.27,North,11,2.0,5.0,50,0.00,,,0.00,14,WeatherCatV1.12B45,2013-01-17 23:41:00,
2013-01-17 16:46:00,31.0,14.6,30.27,North,11,0.0,2.0,50,0.00,,,0.00,14,WeatherCatV1.12B45,2013-01-17 23:46:00,
2013-01-17 16:51:00,30.3,14.4,30.27,North,11,0.0,3.0,51,0.00,,,0.00,12,WeatherCatV1.12B45,2013-01-17 23:51:00,
2013-01-17 16:56:00,29.5,14.1,30.27,North,11,3.0,4.0,52,0.00,,,0.00,11,WeatherCatV1.12B45,2013-01-17 23:56:00,
2013-01-17 17:01:00,29.3,14.3,30.27,North,10,1.0,3.0,53,0.00,,,0.00,9,WeatherCatV1.12B45,2013-01-18 00:01:00,
2013-01-17 17:06:00,29.0,14.0,30.27,North,10,5.0,5.0,53,0.00,,,0.00,9,WeatherCatV1.12B45,2013-01-18 00:06:00,
2013-01-17 17:11:00,29.0,14.0,30.27,North,10,5.0,6.0,53,0.00,,,0.00,7,WeatherCatV1.12B45,2013-01-18 00:11:00,
2013-01-17 17:16:00,28.5,14.0,30.27,North,1,1.0,4.0,54,0.00,,,0.00,5,WeatherCatV1.12B45,2013-01-18 00:16:00,
2013-01-17 17:21:00,28.1,14.0,30.27,North,1,0.0,3.0,55,0.00,,,0.00,0,WeatherCatV1.12B45,2013-01-18 00:21:00,
2013-01-17 17:26:00,27.8,13.8,30.27,North,1,3.0,5.0,55,0.00,,,0.00,0,WeatherCatV1.12B45,2013-01-18 00:26:00,
2013-01-17 17:31:00,27.9,13.9,30.28,North,3,2.0,3.0,55,0.00,,,0.00,0,WeatherCatV1.12B45,2013-01-18 00:31:00,
2013-01-17 17:36:00,27.8,13.3,30.28,North,3,0.0,0.0,54,0.00,,,0.00,0,WeatherCatV1.12B45,2013-01-18 00:36:00,
2013-01-17 17:41:00,27.8,13.8,30.28,North,1,3.0,3.0,55,0.00,,,0.00,0,WeatherCatV1.12B45,2013-01-18 00:41:00,
2013-01-17 17:46:00,28.2,13.7,30.28,North,1,0.0,3.0,54,0.00,,,0.00,0,WeatherCatV1.12B45,2013-01-18 00:46:00,
2013-01-17 17:51:00,28.2,13.7,30.28,North,1,6.0,8.0,54,0.00,,,0.00,0,WeatherCatV1.12B45,2013-01-18 00:51:00,
2013-01-17 17:56:00,27.8,13.8,30.28,North,1,0.0,0.0,55,0.00,,,0.00,0,WeatherCatV1.12B45,2013-01-18 00:56:00,
2013-01-17 18:01:00,27.3,13.3,30.29,North,1,0.0,2.0,55,0.00,,,0.00,0,WeatherCatV1.12B45,2013-01-18 01:01:00,
2013-01-17 18:06:00,27.0,13.4,30.29,North,0,3.0,5.0,56,0.00,,,0.00,0,WeatherCatV1.12B45,2013-01-18 01:06:00,
2013-01-17 18:11:00,26.6,13.4,30.29,North,1,5.0,7.0,57,0.00,,,0.00,0,WeatherCatV1.12B45,2013-01-18 01:11:00,
2013-01-17 18:16:00,26.3,13.2,30.29,North,357,4.0,5.0,57,0.00,,,0.00,0,WeatherCatV1.12B45,2013-01-18 01:16:00,
2013-01-17 18:21:00,26.0,13.3,30.29,North,0,7.0,9.0,58,0.00,,,0.00,0,WeatherCatV1.12B45,2013-01-18 01:21:00,
2013-01-17 18:26:00,25.8,13.5,30.29,North,0,8.0,10.0,59,0.00,,,0.00,0,WeatherCatV1.12B45,2013-01-18 01:26:00,
2013-01-17 18:31:00,25.8,13.1,30.29,North,0,5.0,6.0,58,0.00,,,0.00,0,WeatherCatV1.12B45,2013-01-18 01:31:00,
2013-01-17 18:36:00,25.7,13.0,30.29,North,0,5.0,7.0,58,0.00,,,0.00,0,WeatherCatV1.12B45,2013-01-18 01:36:00,
2013-01-17 18:41:00,25.6,12.9,30.29,North,0,6.0,7.0,58,0.00,,,0.00,0,WeatherCatV1.12B45,2013-01-18 01:41:00,
2013-01-17 18:46:00,25.6,12.9,30.29,North,0,5.0,8.0,58,0.00,,,0.00,0,WeatherCatV1.12B45,2013-01-18 01:46:00,
2013-01-17 18:51:00,25.4,12.7,30.29,North,0,7.0,8.0,58,0.00,,,0.00,0,WeatherCatV1.12B45,2013-01-18 01:51:00,
2013-01-17 18:56:00,25.6,12.9,30.29,North,0,0.0,6.0,58,0.00,,,0.00,0,WeatherCatV1.12B45,2013-01-18 01:56:00,
2013-01-17 19:01:00,25.3,12.6,30.29,North,0,5.0,7.0,58,0.00,,,0.00,0,WeatherCatV1.12B45,2013-01-18 02:01:00,
2013-01-17 19:06:00,25.1,12.4,30.29,North,0,5.0,6.0,58,0.00,,,0.00,0,WeatherCatV1.12B45,2013-01-18 02:06:00,
2013-01-17 19:11:00,24.8,12.5,30.29,North,0,3.0,4.0,59,0.00,,,0.00,0,WeatherCatV1.12B45,2013-01-18 02:11:00,
2013-01-17 19:16:00,24.2,12.3,30.29,North,0,0.0,3.0,60,0.00,,,0.00,0,WeatherCatV1.12B45,2013-01-18 02:16:00,
2013-01-17 19:21:00,23.6,11.8,30.29,North,0,0.0,5.0,60,0.00,,,0.00,0,WeatherCatV1.12B45,2013-01-18 02:21:00,
2013-01-17 19:26:00,23.2,11.8,30.29,North,0,0.0,0.0,61,0.00,,,0.00,0,WeatherCatV1.12B45,2013-01-18 02:26:00,
2013-01-17 19:31:00,23.2,11.8,30.29,North,0,2.0,5.0,61,0.00,,,0.00,0,WeatherCatV1.12B45,2013-01-18 02:31:00,
2013-01-17 19:36:00,22.9,11.5,30.29,North,0,0.0,0.0,61,0.00,,,0.00,0,WeatherCatV1.12B45,2013-01-18 02:36:00,
2013-01-17 19:41:00,22.4,11.4,30.29,North,0,2.0,3.0,62,0.00,,,0.00,0,WeatherCatV1.12B45,2013-01-18 02:41:00,
2013-01-17 19:46:00,21.8,11.2,30.29,North,0,0.0,0.0,63,0.00,,,0.00,0,WeatherCatV1.12B45,2013-01-18 02:46:00,
2013-01-17 19:51:00,21.3,11.0,30.29,North,0,3.0,6.0,64,0.00,,,0.00,0,WeatherCatV1.12B45,2013-01-18 02:51:00,
2013-01-17 19:56:00,21.4,11.1,30.29,North,0,2.0,3.0,64,0.00,,,0.00,0,WeatherCatV1.12B45,2013-01-18 02:56:00,
2013-01-17 20:01:00,21.8,11.2,30.29,North,0,2.0,4.0,63,0.00,,,0.00,0,WeatherCatV1.12B45,2013-01-18 03:01:00,
2013-01-17 20:06:00,21.6,11.3,30.29,North,359,2.0,7.0,64,0.00,,,0.00,0,WeatherCatV1.12B45,2013-01-18 03:06:00,
2013-01-17 20:11:00,21.6,11.0,30.29,North,359,3.0,3.0,63,0.00,,,0.00,0,WeatherCatV1.12B45,2013-01-18 03:11:00,
2013-01-17 20:16:00,21.4,10.8,30.29,North,359,2.0,3.0,63,0.00,,,0.00,0,WeatherCatV1.12B45,2013-01-18 03:16:00,
2013-01-17 20:21:00,21.3,10.7,30.29,North,359,0.0,0.0,63,0.00,,,0.00,0,WeatherCatV1.12B45,2013-01-18 03:21:00,
2013-01-17 20:26:00,21.1,10.9,30.29,North,359,3.0,4.0,64,0.00,,,0.00,0,WeatherCatV1.12B45,2013-01-18 03:26:00,
2013-01-17 20:31:00,21.1,11.2,30.29,North,359,0.0,0.0,65,0.00,,,0.00,0,WeatherCatV1.12B45,2013-01-18 03:31:00,
2013-01-17 20:36:00,21.1,10.9,30.29,North,359,2.0,5.0,64,0.00,,,0.00,0,WeatherCatV1.12B45,2013-01-18 03:36:00,
2013-01-17 20:41:00,20.6,10.4,30.29,North,359,2.0,5.0,64,0.00,,,0.00,0,WeatherCatV1.12B45,2013-01-18 03:41:00,
2013-01-17 20:46:00,20.2,10.3,30.29,North,359,2.0,3.0,65,0.00,,,0.00,0,WeatherCatV1.12B45,2013-01-18 03:46:00,
2013-01-17 20:51:00,20.2,10.3,30.29,North,359,2.0,5.0,65,0.00,,,0.00,0,WeatherCatV1.12B45,2013-01-18 03:51:00,
2013-01-17 20:56:00,20.2,10.3,30.29,North,359,1.0,3.0,65,0.00,,,0.00,0,WeatherCatV1.12B45,2013-01-18 03:56:00,
2013-01-17 21:01:00,19.7,9.9,30.29,North,359,0.0,0.0,65,0.00,,,0.00,0,WeatherCatV1.12B45,2013-01-18 04:01:00,
2013-01-17 21:06:00,19.7,9.9,30.29,North,359,4.0,6.0,65,0.00,,,0.00,0,WeatherCatV1.12B45,2013-01-18 04:06:00,
2013-01-17 21:12:00,19.7,9.9,30.29,North,359,3.0,5.0,65,0.00,,,0.00,0,WeatherCatV1.12B45,2013-01-18 04:12:00,
2013-01-17 21:17:00,19.7,10.2,30.29,North,359,0.0,0.0,66,0.00,,,0.00,0,WeatherCatV1.12B45,2013-01-18 04:17:00,
2013-01-17 21:22:00,19.7,9.9,30.29,North,359,2.0,3.0,65,0.00,,,0.00,0,WeatherCatV1.12B45,2013-01-18 04:22:00,
2013-01-17 21:27:00,19.5,9.7,30.29,North,359,4.0,5.0,65,0.00,,,0.00,0,WeatherCatV1.12B45,2013-01-18 04:27:00,
2013-01-17 21:32:00,18.9,9.4,30.29,North,359,4.0,6.0,66,0.00,,,0.00,0,WeatherCatV1.12B45,2013-01-18 04:32:00,
2013-01-17 21:37:00,18.9,9.8,30.29,North,0,2.0,6.0,67,0.00,,,0.00,0,WeatherCatV1.12B45,2013-01-18 04:37:00,
2013-01-17 21:42:00,19.2,9.4,30.29,North,0,6.0,7.0,65,0.00,,,0.00,0,WeatherCatV1.12B45,2013-01-18 04:42:00,
2013-01-17 21:47:00,19.7,9.5,30.29,North,354,7.0,10.0,64,0.00,,,0.00,0,WeatherCatV1.12B45,2013-01-18 04:47:00,
2013-01-17 21:52:00,20.2,9.7,30.29,North,357,8.0,8.0,63,0.00,,,0.00,0,WeatherCatV1.12B45,2013-01-18 04:52:00,
2013-01-17 21:57:00,20.2,9.7,30.29,North,357,5.0,7.0,63,0.00,,,0.00,0,WeatherCatV1.12B45,2013-01-18 04:57:00,
2013-01-17 22:01:00,20.2,9.7,30.28,North,357,1.0,3.0,63,0.00,,,0.00,0,WeatherCatV1.12B45,2013-01-18 05:01:00,
2013-01-17 22:06:00,20.0,9.8,30.28,North,357,4.0,4.0,64,0.00,,,0.00,0,WeatherCatV1.12B45,2013-01-18 05:06:00,
2013-01-17 22:11:00,20.6,10.4,30.28,North,357,3.0,5.0,64,0.00,,,0.00,0,WeatherCatV1.12B45,2013-01-18 05:11:00,
2013-01-17 22:16:00,21.4,10.4,30.28,North,357,3.0,6.0,62,0.00,,,0.00,0,WeatherCatV1.12B45,2013-01-18 05:16:00,
2013-01-17 22:21:00,21.4,10.4,30.28,North,357,2.0,5.0,62,0.00,,,0.00,0,WeatherCatV1.12B45,2013-01-18 05:21:00,
2013-01-17 22:26:00,21.6,10.3,30.28,North,357,0.0,0.0,61,0.00,,,0.00,0,WeatherCatV1.12B45,2013-01-18 05:26:00,
2013-01-17 22:30:00,21.4,10.1,30.27,North,357,0.0,0.0,61,0.00,,,0.00,0,WeatherCatV1.12B45,2013-01-18 05:30:00,
2013-01-17 22:35:00,21.3,10.7,30.27,North,357,0.0,0.0,63,0.00,,,0.00,0,WeatherCatV1.12B45,2013-01-18 05:35:00,
2013-01-17 22:40:00,21.3,10.3,30.27,North,357,0.0,0.0,62,0.00,,,0.00,0,WeatherCatV1.12B45,2013-01-18 05:40:00,
2013-01-17 22:45:00,21.1,10.1,30.27,North,357,0.0,0.0,62,0.00,,,0.00,0,WeatherCatV1.12B45,2013-01-18 05:45:00,
2013-01-17 22:50:00,21.1,10.5,30.27,North,357,0.0,0.0,63,0.00,,,0.00,0,WeatherCatV1.12B45,2013-01-18 05:50:00,
2013-01-17 22:55:00,21.4,10.4,30.27,North,357,0.0,0.0,62,0.00,,,0.00,0,WeatherCatV1.12B45,2013-01-18 05:55:00,
2013-01-17 23:00:00,21.4,10.4,30.27,North,357,0.0,0.0,62,0.00,,,0.00,0,WeatherCatV1.12B45,2013-01-18 06:00:00,
2013-01-17 23:05:00,20.8,9.9,30.27,North,357,3.0,3.0,62,0.00,,,0.00,0,WeatherCatV1.12B45,2013-01-18 06:05:00,
2013-01-17 23:10:00,20.2,9.7,30.27,North,357,0.0,0.0,63,0.00,,,0.00,0,WeatherCatV1.12B45,2013-01-18 06:10:00,
2013-01-17 23:15:00,19.7,9.9,30.27,North,357,0.0,0.0,65,0.00,,,0.00,0,WeatherCatV1.12B45,2013-01-18 06:15:00,
2013-01-17 23:20:00,19.4,9.2,30.27,North,357,0.0,2.0,64,0.00,,,0.00,0,WeatherCatV1.12B45,2013-01-18 06:20:00,
2013-01-17 23:25:00,19.2,9.4,30.27,North,357,0.0,0.0,65,0.00,,,0.00,0,WeatherCatV1.12B45,2013-01-18 06:25:00,
2013-01-17 23:30:00,19.1,9.6,30.27,North,357,0.0,0.0,66,0.00,,,0.00,0,WeatherCatV1.12B45,2013-01-18 06:30:00,
2013-01-17 23:35:00,19.2,9.4,30.27,North,357,0.0,0.0,65,0.00,,,0.00,0,WeatherCatV1.12B45,2013-01-18 06:35:00,
2013-01-17 23:40:00,19.4,9.9,30.27,North,357,0.0,0.0,66,0.00,,,0.00,0,WeatherCatV1.12B45,2013-01-18 06:40:00,
2013-01-17 23:45:00,19.9,9.7,30.26,North,357,0.0,3.0,64,0.00,,,0.00,0,WeatherCatV1.12B45,2013-01-18 06:45:00,
2013-01-17 23:50:00,20.0,9.1,30.26,North,357,2.0,3.0,62,0.00,,,0.00,0,WeatherCatV1.12B45,2013-01-18 06:50:00,
2013-01-17 23:55:00,19.4,9.6,30.26,North,357,0.0,0.0,65,0.00,,,0.00,0,WeatherCatV1.12B45,2013-01-18 06:55:00,